Location: Acheville
(50.3840°N, 2.8827°E)
Time: 12:24:02
(UTC+00:00)

Cosmos 2100 Rocket - Pass Details

Date: 24 October 2021
Orbit: 955 x 1001 km, 82.9° (Epoch: 05 December)

Event Time Altitude Azimuth Distance (km) Brightness Sun altitude
Rises 18:19:33 0° 158° (SSE) 3,686 6.8 -16.7°
Reaches altitude 10° 18:22:14 10° 150° (SSE) 2,748 6.1 -17.1°
Maximum altitude 18:27:53 36° 86° (E) 1,536 4.5 -18.0°
Drops below altitude 10° 18:33:35 10° 23° (NNE) 2,783 6.2 -18.9°
Sets 18:36:19 0° 15° (NNE) 3,739 6.9 -19.4°
